STARLINK-1793, 46694

Orbit data source: Space-Track

STARLINK-1793, 46694 is a payload satellite owned by SpaceX/Seattle (US) in LEO that was launched on Sun, 18 Oct 2020 UTC via an FALCON 9 launch vehicle from the Air Force Eastern Test Range (AFETR). Payloads include a variety of satellites, spacecraft, and rockets equipped with specific instruments for various scientific and technological missions. These include communications satellites like Starlink; space stations such as the ISS; scientific satellites like the Hubble; Earth observation satellites from companies like Planet Labs, Umbra, and HawkEye 360; GPS; miniature CubeSats for education and research; and military/defense satellites.

Loading next visibility...
STARLINK-1793 details
Identifier
46694, 2020-073AA
Orbit
LEO
Last TLE update1 day ago
Origin
Flag of USSpaceX/Seattle (US)
ManufacturerSpaceX/Seattle
MissionOperational Commercial Communications
Bus & MotorSTARLINK, Unknown motor
Mass260 kg wet, ~248 kg dry
Launch date (UTC)
2020-10-18 (4 years ago)
Launch vehicle
FALCON 9
Launch site
Air Force Eastern Test Range (AFETR)
Object type
Payload
Rocket body
Debris
Shape & HBRBox + 1 Pan, 8.86 m
Radar Cross Section13.562 m², Large (>1 m²)

Expand to show TLE details & history

TLE from 1 day ago
0 STARLINK-1793
1 46694U 20073AA  24360.36172985  .00000595  00000-0  58872-4 0  9990
2 46694  53.0556  33.8328 0001499  89.5774 270.5386 15.06385152231198
Epoch: 2024-12-25T08:40Z
Definitive object data (Epoch: 2024-12-25T08:40:53.459Z)
Latitude-0.00006°
Longitude169.25343°
Altitude548.127 km
Speed7.589 km/s
True Right ascension02h 15m 19s
True Declination0° 00' 00"
Sunlit
Object was in full shadow at TLE epoch
Visualization TLE readout
Latitude-2.94747°
Longitude161.98504°
Altitude548.678 km
Speed7.589 km/s
Apparent Right ascension00h 40m 11s
Apparent Declination-21° 42' 02"
Sunlit
Object is in daylight
Visualization observer readout
Local Sidereal Time11:05:29
Azimuth305.125° NW
Elevation-62.864°
Doppler factor1
Orbital elements
Apogee altitude548.566 km
Perigee altitude546.489 km
Semi-major axis6,925.665 km
Eccentricity0.0001499
Inclination53.0556°
RAAN33.8328°
Arg. of periapsis89.5774°
True anomaly270.52142°
Mean anomaly270.5386°
Eccentric anomaly270.53001°
Mean motion3.76575 °/min
BSTAR0.000058872
Orbital period95.6 mins
Loading maneuver chart data...
Loading historical data...
Loading historical data...
Loading historical data...
Loading historical data...
Loading historical data...
Loading historical data...
Loading historical data...

STARLINK-1793 Visibility forecast

Observer location: undefined°, undefined

Span
Click to sort rows by Start time (UTC) header in descending order
Start Az.
Max El. time (UTC)
Max El. Az.
Max El.
End time (UTC)
End Az.
7 mins2024-12-26 12:16:05.968Z301.126° NW2024-12-26 12:19:05.968Z250.751° W39.545°2024-12-26 12:23:05.968Z145.899° SSE
5 mins2024-12-27 03:50:05.968Z175.383° S2024-12-27 03:52:05.968Z137.024° SSE23.37°2024-12-27 03:55:05.968Z79.397° E
6 mins2024-12-27 05:29:05.968Z260.122° W2024-12-27 05:32:05.968Z344.188° N34.747°2024-12-27 05:35:05.968Z37.845° NE
6 mins2024-12-27 10:31:05.968Z335.619° NNW2024-12-27 10:33:05.968Z15.665° NNE27.197°2024-12-27 10:37:05.968Z92.592° ESE
|